| time (UTC) | temp C | wind direction | speed KPH | gust KPH | rain 1hr cm | rain 24hr cm | rain mn cm | humidity % | barometer mb |
| 20260509184555 | 30 | 1 | 3.2 | 8.0 | 0.00 | 0.00 | 0.00 | 67 | 1009.3 |
| 20260509183035 | 30 | 276 | 3.2 | 9.7 | 0.00 | 0.00 | 0.00 | 67 | 1009.6 |
| 20260509181530 | 30 | 41 | 1.6 | 8.0 | 0.00 | 0.00 | 0.00 | 69 | 1009.7 |
| 20260509180025 | 29 | 6 | 0.0 | 0.0 | 0.00 | 0.00 | 0.00 | 68 | 1010.0 |
| 20260509174521 | 28 | 309 | 0.0 | 0.0 | 0.00 | 0.00 | 0.00 | 69 | 1010.2 |
| 20260509173018 | 28 | 15 | 0.0 | 0.0 | 0.00 | 0.00 | 0.00 | 70 | 1010.2 |
| 20260509171511 | 27 | 39 | 0.0 | 0.0 | 0.00 | 0.00 | 0.00 | 68 | 1010.3 |
| 20260509170007 | 27 | 72 | 0.0 | 0.0 | 0.00 | 0.00 | 0.00 | 54 | 1010.4 |
| 20260509164503 | 26 | 32 | 0.0 | 0.0 | 0.00 | 0.00 | 0.00 | 16 | 1010.7 |
| 20260509163058 | 25 | 22 | 0.0 | 0.0 | 0.00 | 0.00 | 0.00 | 8 | 1011.0 |
| 20260509161555 | 25 | 45 | 0.0 | 0.0 | 0.00 | 0.00 | 0.00 | 1 | 1010.9 |
| 20260509160048 | 25 | 203 | 0.0 | 0.0 | 0.00 | 0.00 | 0.00 | 1 | 1011.0 |
| 20260509154544 | 25 | 271 | 0.0 | 0.0 | 0.00 | 0.00 | 0.00 | 1 | 1011.0 |
| 20260509153045 | 25 | 17 | 0.0 | 0.0 | 0.00 | 0.00 | 0.00 | 1 | 1010.9 |
| 20260509151535 | 24 | 16 | 0.0 | 0.0 | 0.00 | 0.00 | 0.00 | 1 | 1010.9 |
| 20260509150038 | 23 | 16 | 0.0 | 0.0 | 0.00 | 0.00 | 0.00 | 1 | 1010.8 |
| 20260509144530 | 23 | 16 | 0.0 | 0.0 | 0.00 | 0.00 | 0.00 | 1 | 1010.2 |
| 20260509143022 | 23 | 16 | 0.0 | 0.0 | 0.00 | 0.00 | 0.00 | 1 | 1010.1 |
| 20260509141522 | 22 | 259 | 0.0 | 0.0 | 0.00 | 0.00 | 0.00 | 1 | 1009.7 |
| 20260509140013 | 22 | 209 | 0.0 | 0.0 | 0.00 | 0.00 | 0.00 | 1 | 1009.1 |
| 20260509134512 | 22 | 217 | 0.0 | 0.0 | 0.00 | 0.00 | 0.00 | 1 | 1008.8 |
| 20260509133012 | 22 | 296 | 3.2 | 11.3 | 0.00 | 0.00 | 0.00 | 1 | 1008.8 |
| 20260509131600 | -17 | 0.0 | 0.0 | 0.00 | 0.00 | 0.00 | 1009.1 | ||
| 20260509130100 | -17 | 0.0 | 0.0 | 0.00 | 0.00 | 0.00 | 1009.3 | ||
| 20260509124550 | -17 | 0.0 | 0.0 | 0.00 | 0.00 | 0.00 | 1009.1 | ||
| 20260509123101 | -17 | 0.0 | 0.0 | 0.00 | 0.00 | 0.00 | 1009.1 | ||
| 20260509121602 | -17 | 0.0 | 0.0 | 0.00 | 0.00 | 0.00 | 1009.1 | ||
| 20260509120041 | -17 | 0.0 | 0.0 | 0.00 | 0.00 | 0.00 | 1009.7 | ||
| 20260509114539 | -17 | 0.0 | 0.0 | 0.00 | 0.00 | 0.00 | 1009.4 | ||
| 20260509113037 | -17 | 0.0 | 0.0 | 0.00 | 0.00 | 0.00 | 1010.1 | ||
| 20260509111529 | -17 | 0.0 | 0.0 | 0.00 | 0.00 | 0.00 | 1010.3 | ||
| 20260509110023 | -17 | 0.0 | 0.0 | 0.00 | 0.00 | 0.00 | 1010.7 | ||
| 20260509104533 | -17 | 0.0 | 0.0 | 0.00 | 0.00 | 0.00 | 1010.6 | ||
| 20260509103014 | -17 | 0.0 | 0.0 | 0.00 | 0.00 | 0.00 | 1010.4 | ||
| 20260509101510 | -17 | 0.0 | 0.0 | 0.00 | 0.00 | 0.00 | 1010.4 | ||
| 20260509100006 | -17 | 0.0 | 0.0 | 0.00 | 0.00 | 0.00 | 1010.2 | ||
| 20260509094505 | -17 | 0.0 | 0.0 | 0.00 | 0.00 | 0.00 | 1010.1 | ||
| 20260509093106 | -17 | 0.0 | 0.0 | 0.00 | 0.00 | 0.00 | 1009.8 | ||
| 20260509091552 | -17 | 0.0 | 0.0 | 0.00 | 0.00 | 0.00 | 1010.2 | ||
| 20260509090055 | -17 | 0.0 | 0.0 | 0.00 | 0.00 | 0.00 | 1009.9 | ||
| 20260509084546 | -17 | 0.0 | 0.0 | 0.00 | 0.00 | 0.00 | 1009.8 | ||
| 20260509083039 | 21 | 226 | 0.0 | 0.0 | 0.00 | 0.00 | 0.00 | 1 | 1010.1 |
| 20260509081540 | 22 | 224 | 0.0 | 0.0 | 0.00 | 0.00 | 0.00 | 1 | 1010.2 |
| 20260509080029 | 22 | 224 | 0.0 | 0.0 | 0.00 | 0.00 | 0.00 | 1 | 1010.3 |
| 20260509074539 | 22 | 224 | 0.0 | 0.0 | 0.00 | 0.00 | 0.00 | 1 | 1010.6 |
| 20260509073021 | 22 | 223 | 0.0 | 0.0 | 0.00 | 0.00 | 0.00 | 1 | 1010.5 |
| 20260509071517 | 22 | 222 | 0.0 | 4.8 | 0.00 | 0.00 | 0.00 | 1 | 1010.3 |
| 20260509070013 | 22 | 266 | 0.0 | 0.0 | 0.00 | 0.00 | 0.00 | 1 | 1010.6 |
| 20260509064508 | 22 | 227 | 1.6 | 8.0 | 0.00 | 0.00 | 0.00 | 1 | 1010.6 |
| 20260509063003 | 22 | 219 | 0.0 | 9.7 | 0.00 | 0.00 | 0.00 | 1 | 1010.3 |
| 20260509061606 | 22 | 278 | 0.0 | 9.7 | 0.00 | 0.00 | 0.00 | 1 | 1010.4 |
| 20260509060055 | 22 | 173 | 0.0 | 6.4 | 0.00 | 0.00 | 0.00 | 1 | 1010.0 |
| 20260509054600 | 21 | 174 | 1.6 | 9.7 | 0.00 | 0.00 | 0.00 | 1 | 1009.8 |
| 20260509053049 | 21 | 187 | 0.0 | 0.0 | 0.00 | 0.00 | 0.00 | 1 | 1009.9 |
| 20260509051542 | 21 | 278 | 0.0 | 0.0 | 0.00 | 0.00 | 0.00 | 1 | 1009.7 |
| 20260509050039 | 21 | 178 | 1.6 | 11.3 | 0.00 | 0.00 | 0.00 | 1 | 1009.8 |
| 20260509044532 | 21 | 200 | 1.6 | 9.7 | 0.00 | 0.00 | 0.00 | 1 | 1009.8 |
| 20260509043027 | 21 | 209 | 0.0 | 8.0 | 0.00 | 0.00 | 0.00 | 1 | 1009.4 |
| 20260509041532 | 21 | 179 | 0.0 | 9.7 | 0.00 | 0.00 | 0.00 | 1 | 1009.3 |
| 20260509040018 | 22 | 188 | 0.0 | 4.8 | 0.00 | 0.00 | 0.00 | 1 | 1009.1 |
| 20260509034515 | 22 | 193 | 0.0 | 4.8 | 0.00 | 0.00 | 0.00 | 1 | 1009.1 |
| 20260509033010 | 22 | 193 | 0.0 | 4.8 | 0.00 | 0.00 | 0.00 | 1 | 1009.3 |
| 20260509031506 | 22 | 177 | 0.0 | 6.4 | 0.00 | 0.00 | 0.00 | 1 | 1009.1 |
| 20260509030002 | 23 | 183 | 1.6 | 6.4 | 0.00 | 0.00 | 0.00 | 1 | 1008.8 |
| 20260509024559 | 23 | 179 | 1.6 | 9.7 | 0.00 | 0.00 | 0.00 | 1 | 1008.6 |
| 20260509023107 | 23 | 233 | 0.0 | 6.4 | 0.00 | 0.00 | 0.00 | 1 | 1008.7 |
| 20260509021548 | 23 | 171 | 0.0 | 8.0 | 0.00 | 0.00 | 0.00 | 8 | 1008.6 |
| 20260509020052 | 23 | 221 | 1.6 | 14.5 | 0.00 | 0.00 | 0.00 | 14 | 1008.4 |
| 20260509014540 | 23 | 185 | 3.2 | 9.7 | 0.00 | 0.00 | 0.00 | 17 | 1008.5 |
| 20260509013042 | 23 | 176 | 0.0 | 9.7 | 0.00 | 0.00 | 0.00 | 22 | 1008.4 |
| 20260509011530 | 24 | 220 | 0.0 | 4.8 | 0.00 | 0.00 | 0.00 | 26 | 1008.4 |
| 20260509010024 | 24 | 182 | 1.6 | 6.4 | 0.00 | 0.00 | 0.00 | 31 | 1008.4 |
| 20260509004522 | 24 | 182 | 0.0 | 3.2 | 0.00 | 0.00 | 0.00 | 36 | 1008.3 |
| 20260509003016 | 25 | 182 | 0.0 | 0.0 | 0.00 | 0.00 | 0.00 | 45 | 1008.5 |
| 20260509001512 | 25 | 182 | 0.0 | 1.6 | 0.00 | 0.00 | 0.00 | 50 | 1008.6 |
| 20260509000007 | 25 | 182 | 0.0 | 0.0 | 0.00 | 0.00 | 0.00 | 50 | 1008.6 |
| 20260508234502 | 25 | 182 | 0.0 | 0.0 | 0.00 | 0.00 | 0.00 | 53 | 1008.6 |
| 20260508233117 | 25 | 182 | 0.0 | 3.2 | 0.00 | 0.00 | 0.00 | 59 | 1008.6 |
| 20260508231554 | 26 | 187 | 0.0 | 1.6 | 0.00 | 0.00 | 0.00 | 66 | 1008.5 |
| 20260508230049 | 27 | 188 | 0.0 | 1.6 | 0.00 | 0.00 | 0.00 | 68 | 1008.5 |
| 20260508224545 | 27 | 188 | 0.0 | 6.4 | 0.00 | 0.00 | 0.00 | 68 | 1008.7 |
| 20260508223040 | 27 | 188 | 0.0 | 0.0 | 0.00 | 0.00 | 0.00 | 67 | 1008.5 |
| 20260508221536 | 26 | 188 | 0.0 | 6.4 | 0.00 | 0.00 | 0.00 | 68 | 1008.6 |
| 20260508220031 | 27 | 188 | 0.0 | 4.8 | 0.00 | 0.00 | 0.00 | 68 | 1008.6 |
| 20260508214530 | 27 | 99 | 0.0 | 3.2 | 0.00 | 0.00 | 0.00 | 68 | 1008.7 |
| 20260508213028 | 27 | 177 | 1.6 | 4.8 | 0.00 | 0.00 | 0.00 | 69 | 1009.1 |
| 20260508211532 | 27 | 177 | 0.0 | 6.4 | 0.00 | 0.00 | 0.00 | 68 | 1009.4 |
| 20260508210014 | 26 | 170 | 0.0 | 11.3 | 0.00 | 0.00 | 0.00 | 67 | 1009.7 |
| 20260508204509 | 26 | 181 | 0.0 | 9.7 | 0.00 | 0.00 | 0.00 | 66 | 1010.0 |
| 20260508203006 | 25 | 268 | 0.0 | 6.4 | 0.00 | 0.00 | 0.00 | 61 | 1010.2 |
| 20260508201601 | 25 | 157 | 0.0 | 4.8 | 0.00 | 0.00 | 0.00 | 57 | 1010.3 |
| 20260508200111 | 25 | 148 | 0.0 | 0.0 | 0.00 | 0.00 | 0.00 | 64 | 1010.5 |
| 20260508194552 | 25 | 62 | 0.0 | 6.4 | 0.00 | 0.00 | 0.00 | 59 | 1010.6 |
| 20260508193122 | 24 | 171 | 0.0 | 4.8 | 0.00 | 0.00 | 0.00 | 46 | 1010.7 |
| 20260508191545 | 23 | 78 | 0.0 | 8.0 | 0.00 | 0.00 | 0.00 | 47 | 1011.1 |
| 20260508190038 | 23 | 134 | 0.0 | 3.2 | 0.00 | 0.00 | 0.00 | 51 | 1011.2 |